Location: Briis
(48.6240°N, 2.1211°E)
Time: 15:04:57
(UTC+00:00)

Cosmos 1864 Rocket - Pass Details

Date: 25 September 2020
Orbit: 950 x 998 km, 82.9° (Epoch: 21 October)

Event Time Altitude Azimuth Distance (km) Brightness Sun altitude
Rises 04:39:47 0° 348° (NNW) 3,696 7.5 -11.2°
Reaches altitude 10° 04:42:20 10° 346° (NNW) 2,737 6.8 -10.8°
Maximum altitude 04:48:31 67° 266° (W) 1,050 4.5 -9.8°
Drops below altitude 10° 04:54:36 10° 185° (S) 2,687 6.7 -8.8°
Sets 04:57:05 0° 183° (S) 3,623 7.4 -8.4°
